﻿Дата;Google;AdRiver;ReadMe.ru;C8 Network
2020-11-02;1;0;0;0
2020-10-20;1;0;0;0
2020-10-01;1;0;0;0
2020-09-29;1;0;0;0
2020-09-27;1;0;0;0
2020-09-24;1;0;0;0
2020-09-21;1;0;0;0
2020-09-03;1;0;0;0
2020-08-06;1;0;0;0
2020-07-29;1;0;0;0
2020-05-04;1;0;0;0
2020-04-25;2;0;0;0
2020-04-24;1;0;0;0
2020-04-17;1;0;0;0
2020-04-04;1;0;0;0
2020-03-28;1;0;0;0
2020-03-26;1;0;0;0
2020-01-22;1;0;0;0
2020-01-02;1;0;0;0
2020-01-01;2;0;0;0
2019-12-31;1;0;0;0
2019-11-23;1;0;0;0
2019-11-17;1;0;0;0
2019-11-10;1;0;0;0
2019-11-07;1;0;0;0
2019-11-06;1;0;0;0
2019-10-22;1;0;0;0
2019-09-28;1;0;0;0
2019-09-02;1;0;0;0
2019-08-23;1;0;0;0
2019-08-08;2;0;0;0
2019-04-08;1;0;0;0
2019-04-04;2;0;0;0
2019-03-30;1;0;0;0
2019-03-28;1;0;0;0
2019-03-21;1;0;0;0
2019-03-17;1;0;0;0
2019-03-11;1;0;0;0
2019-03-07;1;0;0;0
2019-03-03;1;0;0;0
2019-02-26;1;0;0;0
2019-02-18;1;0;0;0
2019-02-16;1;0;0;0
2019-02-09;1;0;0;0
2019-01-29;2;0;0;0
2019-01-27;1;0;0;0
2019-01-18;1;0;0;0
2019-01-15;1;0;0;0
2018-12-13;1;0;0;0
2018-12-05;1;0;0;0
2018-11-23;1;0;0;0
2018-11-22;1;0;0;0
2018-11-12;1;0;0;0
2018-11-10;1;0;0;0
2018-11-07;1;0;0;0
2018-10-31;1;0;0;0
2018-10-27;1;0;0;0
2018-10-26;2;0;0;0
2018-10-25;1;0;0;0
2018-09-24;1;0;0;0
2018-09-21;1;0;0;0
2018-09-20;1;0;0;0
2018-09-16;1;0;0;0
2018-09-05;1;0;0;0
2018-09-04;1;0;0;0
2018-08-30;1;0;0;0
2018-08-08;1;0;0;0
2018-08-06;1;0;0;0
2018-08-02;1;0;0;0
2018-07-26;1;0;0;0
2018-07-25;8;0;0;0
2018-07-24;2;0;0;0
2018-07-23;6;0;0;0
2018-07-22;6;0;0;0
2018-07-21;4;0;0;0
2018-07-20;3;0;0;0
2018-07-19;10;0;0;0
2018-07-18;6;0;0;0
2018-07-17;2;0;0;0
2018-07-16;2;0;0;0
2018-07-15;1;0;0;0
2018-07-10;1;0;0;0
2018-05-27;1;0;0;0
2018-05-23;1;0;0;0
2018-05-21;1;0;0;0
2018-05-18;1;0;0;0
2018-05-17;1;0;0;0
2018-04-24;1;0;0;0
2018-04-12;1;0;0;0
2018-01-20;1;0;0;0
2018-01-10;1;0;0;0
2018-01-07;1;0;0;0
2018-01-06;1;0;0;0
2017-11-29;1;0;0;0
2017-11-26;1;0;0;0
2017-11-22;1;0;0;0
2017-09-30;1;0;0;0
2017-09-26;1;0;0;0
2017-09-17;1;0;0;0
2017-09-03;1;0;0;0
2017-08-09;1;0;0;0
2017-08-01;1;0;0;0
2017-07-31;1;0;0;0
2017-07-02;1;0;0;0
2017-05-30;1;0;0;0
2017-05-21;1;0;0;0
2017-05-02;1;0;0;0
2017-04-26;1;0;0;0
2017-04-24;1;0;0;0
2017-04-14;1;0;0;0
2017-03-25;1;0;0;0
2017-02-26;1;0;0;0
2017-02-22;1;0;0;0
2017-02-21;1;0;0;0
2017-02-19;1;0;0;0
2017-02-16;2;0;0;0
2017-02-15;1;0;0;0
2017-02-13;1;0;0;0
2017-02-12;2;0;0;0
2017-02-11;1;0;0;0
2017-02-10;1;0;0;0
2017-02-09;1;0;0;0
2017-01-19;1;0;0;0
2017-01-17;2;0;0;0
2017-01-16;1;0;0;0
2017-01-14;1;0;0;0
2017-01-13;1;0;0;0
2017-01-11;1;0;0;0
2017-01-10;1;0;0;0
2016-12-26;1;0;0;0
2016-12-24;1;0;0;0
2016-12-20;1;0;0;0
2016-12-12;1;0;0;0
2016-09-27;1;0;0;0
2016-09-14;1;0;0;0
2016-09-13;0;1;0;0
2016-09-12;1;0;0;0
2016-09-09;1;0;0;0
2016-09-08;1;0;0;0
2016-09-05;0;1;0;0
2016-09-04;1;0;0;0
2016-09-01;1;0;0;0
2016-08-18;1;0;0;0
2016-08-15;1;0;0;0
2016-08-09;1;0;0;0
2016-08-08;1;0;0;0
2016-07-22;1;0;0;0
2016-07-21;1;0;0;0
2016-07-20;1;0;0;0
2016-07-09;1;0;0;0
2016-07-05;1;0;0;0
2016-07-04;1;0;0;0
2016-06-24;1;0;0;0
2016-06-18;1;0;0;0
2016-06-17;1;0;0;0
2016-06-15;1;0;0;0
2016-06-14;1;0;0;0
2016-06-13;1;0;0;0
2016-06-11;2;0;0;0
2016-06-09;3;0;0;0
2016-06-08;2;0;0;0
2016-06-07;3;0;0;0
2016-06-06;1;0;0;0
2016-06-05;2;0;0;0
2016-06-04;1;0;0;0
2016-06-02;1;0;0;0
2016-06-01;1;0;0;0
2016-05-31;1;0;0;0
2016-05-30;1;0;0;0
2016-05-28;1;0;0;0
2016-05-27;0;1;0;0
2016-05-25;0;1;0;0
2016-05-24;1;0;0;0
2016-05-23;1;0;0;0
2016-05-21;1;0;0;0
2016-05-17;1;0;0;0
2016-05-12;1;0;0;0
2016-05-10;3;0;0;0
2016-05-09;1;0;0;0
2016-05-08;1;0;0;0
2016-05-07;1;0;0;0
2016-05-06;1;0;0;0
2016-04-30;1;0;0;0
2016-04-29;1;0;0;0
2016-04-28;2;0;0;0
2016-04-26;1;0;0;0
2016-04-25;1;0;0;0
2016-04-22;1;0;0;0
2016-04-21;1;0;0;0
2016-04-20;1;0;0;0
2016-04-15;2;0;0;0
2016-04-14;1;0;0;0
2016-04-13;1;0;0;0
2016-04-12;2;0;0;0
2016-04-11;1;0;0;0
2016-04-10;3;0;0;0
2016-04-07;2;0;0;0
2016-04-06;1;0;0;0
2016-04-04;2;0;0;0
2016-04-02;2;0;0;0
2016-03-31;2;0;0;0
2016-03-30;1;0;0;0
2016-03-29;1;0;0;0
2016-03-26;1;0;0;0
2016-03-24;1;0;0;0
2016-03-23;3;0;0;0
2016-03-15;1;0;0;0
2016-03-11;1;0;0;0
2016-03-09;1;0;0;0
2016-03-08;1;0;0;0
2016-03-06;1;0;0;0
2016-03-05;3;0;0;0
2016-03-04;1;0;0;0
2016-03-03;1;0;0;0
2016-03-01;1;0;0;0
2016-02-29;2;0;0;0
2016-02-27;1;0;0;0
2016-02-26;2;0;0;0
2016-02-25;3;0;0;0
2016-02-23;3;0;0;0
2016-02-22;3;0;0;0
2016-02-21;1;0;0;0
2016-02-20;2;0;0;0
2016-02-19;1;0;0;0
2016-02-18;2;0;0;0
2016-02-17;4;0;0;0
2016-02-16;2;0;0;0
2016-02-15;2;0;0;0
2016-02-14;3;0;0;0
2016-02-13;1;0;0;0
2016-02-11;2;0;0;0
2016-02-10;2;0;0;0
2016-02-09;2;0;0;0
2016-02-08;3;0;0;0
2016-02-07;3;0;0;0
2016-02-06;2;0;0;0
2016-02-05;2;0;0;0
2016-02-03;1;0;0;0
2016-02-01;1;0;0;0
2016-01-31;1;0;0;0
2016-01-30;3;0;0;0
2016-01-29;1;0;0;0
2016-01-28;3;0;0;0
2016-01-27;1;0;0;0
2016-01-26;3;0;0;0
2016-01-25;4;0;0;0
2016-01-22;2;0;0;0
2016-01-21;2;0;0;0
2016-01-20;2;0;0;0
2016-01-19;3;0;0;0
2016-01-18;2;0;0;0
2016-01-17;2;0;0;0
2016-01-15;3;0;0;0
2016-01-14;2;0;0;0
2016-01-13;4;0;0;0
2016-01-12;1;0;0;0
2016-01-11;4;0;0;0
2016-01-10;3;0;0;0
2016-01-08;5;0;0;0
2016-01-07;1;0;0;0
2016-01-06;3;0;0;0
2016-01-05;2;0;0;0
2016-01-04;1;0;0;0
2016-01-03;1;0;0;0
2016-01-01;2;0;0;0
2015-12-31;2;0;0;0
2015-12-30;5;0;0;0
2015-12-29;2;0;0;0
2015-12-28;1;0;0;0
2015-12-27;3;0;0;0
2015-12-26;1;0;0;0
2015-12-24;2;0;0;0
2015-12-23;2;0;0;0
2015-12-19;3;0;0;0
2015-12-18;1;0;0;0
2015-12-17;1;0;0;0
2015-12-16;1;0;0;0
2015-12-15;2;0;0;0
2015-12-14;1;0;0;0
2015-12-13;3;0;0;0
2015-12-11;2;0;0;0
2015-12-10;4;0;0;0
2015-12-08;3;0;0;0
2015-12-07;1;0;0;0
2015-12-03;1;0;0;0
2015-12-02;1;0;0;0
2015-12-01;2;0;0;0
2015-11-30;2;0;0;0
2015-11-29;1;0;0;0
2015-11-28;1;0;0;0
2015-11-27;1;0;0;0
2015-11-26;1;0;0;0
2015-11-22;3;0;0;0
2015-11-21;2;0;0;0
2015-11-19;4;0;0;0
2015-11-16;1;0;0;0
2015-11-15;2;0;0;0
2015-11-13;3;0;0;0
2015-11-12;2;0;0;0
2015-11-10;1;0;0;0
2015-11-09;2;0;0;0
2015-11-08;3;0;0;0
2015-11-06;2;0;0;0
2015-11-04;1;0;0;0
2015-11-02;2;0;0;0
2015-10-30;2;0;0;0
2015-10-29;1;0;0;0
2015-10-28;4;0;0;0
2015-10-27;1;0;0;0
2015-10-26;2;0;0;0
2015-10-24;1;0;0;0
2015-10-23;1;0;0;0
2015-10-21;2;0;0;0
2015-10-20;1;0;0;0
2015-10-18;2;0;0;0
2015-10-14;1;0;0;0
2015-10-13;4;0;0;0
2015-10-12;12;0;0;0
2015-10-11;6;0;0;0
2015-10-10;7;0;0;0
2015-10-09;5;0;0;0
2015-10-07;2;0;0;0
2015-10-06;10;0;0;0
2015-10-05;10;0;0;0
2015-10-04;12;0;0;0
2015-10-03;8;0;0;0
2015-09-29;3;0;0;0
2015-09-28;10;0;0;0
2015-09-27;6;0;0;0
2015-09-26;5;0;0;0
2015-09-25;8;0;0;0
2015-09-24;5;0;0;0
2015-09-23;9;0;0;0
2015-09-22;12;0;0;0
2015-09-21;6;0;0;0
2015-09-20;4;0;0;0
2015-09-19;9;0;0;0
2015-09-18;13;0;0;0
2015-09-17;11;0;0;0
2015-09-16;8;0;0;0
2015-09-15;7;0;0;0
2015-09-14;7;1;0;0
2015-09-13;9;0;0;0
2015-09-12;6;0;0;0
2015-09-11;12;0;0;0
2015-09-10;10;0;0;0
2015-09-09;13;0;0;0
2015-09-08;8;0;0;0
2015-09-07;8;0;0;0
2015-09-06;7;0;0;0
2015-09-05;9;0;0;0
2015-09-04;9;0;0;0
2015-09-03;11;0;0;0
2015-09-02;11;0;0;0
2015-09-01;5;0;0;0
2015-08-31;11;0;0;0
2015-08-30;6;0;0;0
2015-08-29;6;0;0;0
2015-08-28;11;0;0;0
2015-08-27;8;0;0;0
2015-08-26;5;0;0;0
2015-08-25;7;0;0;0
2015-08-24;8;0;0;0
2015-08-23;8;0;0;0
2015-08-22;7;1;0;0
2015-08-21;10;0;0;0
2015-08-20;7;0;0;0
2015-08-19;15;0;0;0
2015-08-18;9;0;0;0
2015-08-17;10;0;0;0
2015-08-16;6;0;0;0
2015-08-15;12;0;0;0
2015-08-14;10;0;0;0
2015-08-13;10;0;0;0
2015-08-12;10;0;0;0
2015-08-11;15;0;0;0
2015-08-10;12;0;0;0
2015-08-09;10;0;0;0
2015-08-08;7;0;0;0
2015-08-07;10;0;0;0
2015-08-06;8;0;0;0
2015-08-05;7;0;0;0
2015-08-04;12;0;0;0
2015-08-03;18;0;0;0
2015-08-02;10;0;0;0
2015-08-01;6;0;0;0
2015-07-31;17;0;0;0
2015-07-30;12;0;0;0
2015-07-29;4;0;0;0
2015-07-28;2;0;0;0
2015-07-27;1;0;0;0
2015-07-26;1;0;0;0
2015-07-25;1;0;0;0
2015-07-24;3;0;0;0
2015-07-23;9;1;0;0
2015-07-22;12;0;0;0
2015-07-21;13;0;0;0
2015-07-20;32;0;0;0
2015-07-19;40;0;0;0
2015-07-18;37;0;0;0
2015-07-17;50;0;0;0
2015-07-16;43;0;0;0
2015-07-15;54;0;0;0
2015-07-14;43;0;0;0
2015-07-13;36;0;0;0
2015-07-12;40;0;0;0
2015-07-11;43;0;0;0
2015-07-10;47;0;0;0
2015-07-09;59;0;0;0
2015-07-08;66;0;0;0
2015-07-07;56;0;0;0
2015-07-06;59;0;0;0
2015-07-05;54;0;0;0
2015-07-04;51;0;0;0
2015-07-03;42;0;0;0
2015-07-02;53;0;0;0
2015-07-01;58;0;0;0
2015-06-30;62;0;0;0
2015-06-29;61;0;0;0
2015-06-28;69;0;0;0
2015-06-27;59;0;0;0
2015-06-26;10;1;0;0
2015-06-25;42;0;0;0
2015-06-24;5;0;0;0
2015-06-23;10;0;0;0
2015-06-22;54;0;0;0
2015-06-21;43;0;0;0
2015-06-20;52;0;0;0
2015-06-19;62;0;0;0
2015-06-18;64;0;0;0
2015-06-17;63;0;0;0
2015-06-16;48;0;0;0
2015-06-15;50;0;0;0
2015-06-14;45;0;0;0
2015-06-13;46;0;0;0
2015-06-12;41;0;0;0
2015-06-11;54;0;0;0
2015-06-10;51;0;0;0
2015-06-09;47;0;0;0
2015-06-08;58;0;0;0
2015-06-07;54;0;0;0
2015-06-06;52;0;0;0
2015-06-05;67;0;0;0
2015-06-04;54;0;0;0
2015-06-03;56;0;0;0
2015-06-02;60;0;0;0
2015-06-01;67;1;0;0
2015-05-31;44;0;0;0
2015-05-30;51;0;0;0
2015-05-29;56;0;0;0
2015-05-28;59;0;0;0
2015-05-27;56;0;0;0
2015-05-26;56;1;0;0
2015-05-25;53;0;0;0
2015-05-24;51;0;0;0
2015-05-23;42;1;0;0
2015-05-22;46;0;0;0
2015-05-21;120;0;0;0
2015-05-20;134;0;0;0
2015-05-19;73;0;0;0
2015-05-18;59;0;0;0
2015-05-17;55;0;0;0
2015-05-16;63;1;0;0
2015-05-15;76;0;0;0
2015-05-14;69;0;0;0
2015-05-13;66;0;0;0
2015-05-12;83;0;0;0
2015-05-11;68;0;0;0
2015-05-10;70;0;0;0
2015-05-09;43;0;0;0
2015-05-08;57;0;0;0
2015-05-07;65;0;0;0
2015-05-06;66;0;0;0
2015-05-05;70;0;0;0
2015-05-04;73;0;0;0
2015-05-03;59;0;0;0
2015-05-02;70;1;0;0
2015-05-01;78;1;0;0
2015-04-30;75;0;0;0
2015-04-29;66;0;0;0
2015-04-28;107;0;0;0
2015-04-27;112;0;0;0
2015-04-26;119;0;0;0
2015-04-25;97;0;0;0
2015-04-24;110;0;0;0
2015-04-23;123;0;0;0
2015-04-22;127;0;0;0
2015-04-21;122;0;0;0
2015-04-20;108;0;0;0
2015-04-19;124;0;0;0
2015-04-18;128;0;0;0
2015-04-17;115;0;0;0
2015-04-16;133;0;0;0
2015-04-15;116;0;0;0
2015-04-14;131;0;0;0
2015-04-13;116;0;0;0
2015-04-12;109;0;0;0
2015-04-11;111;0;0;0
2015-04-10;130;0;0;0
2015-04-09;113;0;0;0
2015-04-08;142;0;0;0
2015-04-07;124;0;0;0
2015-04-06;89;0;0;0
2015-04-05;140;0;0;0
2015-04-04;110;0;0;0
2015-04-03;130;0;0;0
2015-04-02;103;0;0;0
2015-04-01;125;0;0;0
2015-03-31;163;0;0;0
2015-03-30;160;0;0;0
2015-03-29;120;0;0;0
2015-03-28;63;0;0;0
2015-03-27;75;0;0;0
2015-03-26;4;0;0;0
2015-03-25;9;0;0;0
2015-03-24;8;0;0;0
2015-03-23;77;0;0;0
2015-03-22;148;0;0;0
2015-03-21;112;0;0;0
2015-03-20;136;0;0;0
2015-03-19;140;0;0;0
2015-03-18;132;0;0;0
2015-03-17;138;0;0;0
2015-03-16;111;1;0;0
2015-03-15;138;0;0;0
2015-03-14;137;0;0;0
2015-03-13;127;0;0;0
2015-03-12;154;0;0;0
2015-03-11;145;0;0;0
2015-03-10;155;0;0;0
2015-03-09;121;0;0;0
2015-03-08;123;0;0;0
2015-03-07;132;0;0;0
2015-03-06;124;0;0;0
2015-03-05;161;0;0;0
2015-03-04;162;0;0;0
2015-03-03;126;0;0;0
2015-03-02;104;0;0;0
2015-03-01;117;0;0;0
2015-02-28;128;0;0;0
2015-02-27;124;0;0;0
2015-02-26;118;0;0;0
2015-02-25;124;0;0;0
2015-02-24;63;0;0;0
2015-02-23;105;0;0;0
2015-02-22;13;0;0;0
2015-02-21;82;0;0;0
2015-02-20;129;0;0;0
2015-02-19;146;0;0;0
2015-02-18;143;0;0;0
2015-02-17;141;0;0;0
2015-02-16;141;0;0;0
2015-02-15;170;0;0;0
2015-02-14;145;0;0;0
2015-02-13;126;0;0;0
2015-02-12;164;0;0;0
2015-02-11;206;0;0;0
2015-02-10;196;0;0;0
2015-02-09;152;0;0;0
2015-02-08;181;0;0;0
2015-02-07;186;0;0;0
2015-02-06;127;0;0;0
2015-02-05;185;0;0;0
2015-02-04;199;1;0;0
2015-02-03;230;0;0;0
2015-02-02;260;1;0;0
2015-02-01;213;0;0;0
2015-01-31;207;0;0;0
2015-01-30;186;0;0;0
2015-01-29;215;0;0;0
2015-01-28;210;0;0;0
2015-01-27;217;0;0;0
2015-01-26;248;0;0;0
2015-01-25;207;0;0;0
2015-01-24;201;0;0;0
2015-01-23;196;0;0;0
2015-01-22;203;0;0;0
2015-01-21;209;0;0;0
2015-01-20;196;0;0;0
2015-01-19;212;0;0;0
2015-01-18;196;0;0;0
2015-01-17;196;0;0;0
2015-01-16;185;0;0;0
2015-01-15;187;1;0;0
2015-01-14;220;0;0;0
2015-01-13;190;0;0;0
2015-01-12;229;0;0;0
2015-01-11;224;1;0;0
2015-01-10;220;0;0;0
2015-01-09;225;0;0;0
2015-01-08;238;0;0;0
2015-01-07;227;0;0;0
2015-01-06;216;0;0;0
2015-01-05;245;0;0;0
2015-01-04;244;0;0;0
2015-01-03;208;0;0;0
2015-01-02;207;1;0;0
2015-01-01;191;0;0;0
2014-12-31;196;0;0;0
2014-12-30;192;0;0;0
2014-12-29;162;0;0;0
2014-12-28;184;0;0;0
2014-12-27;166;0;0;0
2014-12-26;149;0;0;0
2014-12-25;179;0;0;0
2014-12-24;181;1;0;0
2014-12-23;149;0;0;0
2014-12-22;195;0;0;0
2014-12-21;173;0;0;0
2014-12-20;145;0;0;0
2014-12-19;159;0;0;0
2014-12-18;153;0;0;0
2014-12-17;173;0;0;0
2014-12-16;188;1;0;0
2014-12-15;171;0;0;0
2014-12-14;155;0;0;0
2014-12-13;156;0;0;0
2014-12-12;149;0;0;0
2014-12-11;184;0;0;0
2014-12-10;181;0;0;0
2014-12-09;195;0;0;0
2014-12-08;144;0;0;0
2014-12-07;179;0;0;0
2014-12-06;167;0;0;0
2014-12-05;174;0;0;0
2014-12-04;194;0;0;0
2014-12-03;176;0;0;0
2014-12-02;81;0;0;0
2014-12-01;145;0;0;0
2014-11-30;101;0;0;0
2014-11-29;205;0;0;0
2014-11-28;196;0;0;0
2014-11-27;185;0;0;0
2014-11-26;195;0;0;0
2014-11-25;186;0;0;0
2014-11-24;163;0;0;0
2014-11-23;185;0;0;0
2014-11-22;166;0;0;0
2014-11-21;188;0;0;0
2014-11-20;170;1;0;0
2014-11-19;163;0;0;0
2014-11-18;179;0;0;0
2014-11-17;173;0;0;0
2014-11-16;178;0;0;0
2014-11-15;160;0;0;0
2014-11-14;156;0;0;0
2014-11-13;177;0;0;0
2014-11-12;146;0;0;0
2014-11-11;52;0;0;0
2014-11-10;106;0;0;0
2014-11-09;11;0;0;0
2014-11-08;38;0;0;0
2014-11-07;135;0;0;0
2014-11-06;148;0;0;0
2014-11-05;158;0;0;0
2014-11-04;153;0;0;0
2014-11-03;148;0;0;0
2014-11-02;166;0;0;0
2014-11-01;148;0;0;0
2014-10-31;161;0;0;0
2014-10-30;171;1;0;0
2014-10-29;176;0;0;0
2014-10-28;169;0;0;0
2014-10-27;167;0;0;0
2014-10-26;164;0;0;0
2014-10-25;148;0;0;0
2014-10-24;154;0;0;0
2014-10-23;154;0;0;0
2014-10-22;153;1;0;0
2014-10-21;174;0;0;0
2014-10-20;189;0;0;0
2014-10-19;149;0;0;0
2014-10-18;156;0;0;0
2014-10-17;149;0;0;0
2014-10-16;28;0;0;0
2014-10-15;148;1;0;0
2014-10-14;129;0;0;0
2014-10-13;90;0;0;0
2014-10-12;109;0;0;0
2014-10-11;110;0;0;0
2014-10-10;130;0;0;0
2014-10-09;149;0;0;0
2014-10-08;148;1;0;0
2014-10-07;165;0;0;0
2014-10-06;150;0;0;0
2014-10-05;139;0;0;0
2014-10-04;129;0;0;0
2014-10-03;137;0;0;0
2014-10-02;151;0;0;0
2014-10-01;131;0;0;0
2014-09-30;163;0;0;0
2014-09-29;153;0;0;0
2014-09-28;152;1;0;0
2014-09-27;141;0;0;0
2014-09-26;137;0;0;0
2014-09-25;134;0;0;0
2014-09-24;144;0;0;0
2014-09-23;136;0;0;0
2014-09-22;66;0;0;0
2014-09-21;125;0;0;0
2014-09-20;106;0;0;0
2014-09-19;118;0;0;0
2014-09-18;110;0;0;0
2014-09-17;126;0;0;0
2014-09-16;136;0;0;0
2014-09-15;131;0;0;0
2014-09-14;114;0;0;0
2014-09-13;130;0;0;0
2014-09-12;120;0;0;0
2014-09-11;131;0;0;0
2014-09-10;145;0;0;0
2014-09-09;90;1;0;0
2014-09-08;143;0;0;0
2014-09-07;127;1;0;0
2014-09-06;126;0;0;0
2014-09-05;142;0;0;0
2014-09-04;156;1;0;0
2014-09-03;134;0;0;0
2014-09-02;147;0;0;0
2014-09-01;136;0;0;0
2014-08-31;118;0;0;0
2014-08-30;108;0;0;0
2014-08-29;116;0;0;0
2014-08-28;140;0;0;0
2014-08-27;124;0;0;0
2014-08-26;132;0;0;0
2014-08-25;110;0;0;0
2014-08-24;99;0;0;0
2014-08-23;101;0;0;0
2014-08-22;41;0;0;0
2014-08-21;118;0;0;0
2014-08-20;143;0;0;0
2014-08-19;131;0;0;0
2014-08-18;112;1;0;0
2014-08-17;130;0;0;0
2014-08-16;128;0;0;0
2014-08-15;145;0;0;0
2014-08-14;159;0;0;0
2014-08-13;146;0;0;0
2014-08-12;150;0;0;0
2014-08-11;140;0;0;0
2014-08-10;141;0;0;0
2014-08-09;129;0;0;0
2014-08-08;164;0;0;0
2014-08-07;160;0;0;0
2014-08-06;161;0;0;0
2014-08-05;143;0;0;0
2014-08-04;161;0;0;0
2014-08-03;124;0;0;0
2014-08-02;120;0;0;0
2014-08-01;90;0;0;0
2014-07-31;163;0;0;0
2014-07-30;140;0;0;0
2014-07-29;159;0;0;0
2014-07-28;162;0;0;0
2014-07-27;139;0;0;0
2014-07-26;142;0;0;0
2014-07-25;153;0;0;0
2014-07-24;104;0;0;0
2014-07-23;163;0;0;0
2014-07-22;161;0;0;0
2014-07-21;144;0;0;0
2014-07-20;157;0;0;0
2014-07-19;136;0;0;0
2014-07-18;147;0;0;0
2014-07-17;126;0;0;0
2014-07-16;103;0;0;0
2014-07-15;138;0;0;0
2014-07-14;122;0;0;0
2014-07-13;132;0;0;0
2014-07-12;126;0;0;0
2014-07-11;115;0;0;0
2014-07-10;127;0;0;0
2014-07-09;115;0;0;0
2014-07-08;113;0;0;0
2014-07-07;111;0;0;0
2014-07-06;116;0;0;0
2014-07-05;86;0;0;0
2014-07-04;118;0;0;0
2014-07-03;130;0;0;0
2014-07-02;130;1;0;0
2014-07-01;143;0;0;0
2014-06-30;108;0;0;0
2014-06-29;128;0;0;0
2014-06-28;106;0;0;0
2014-06-27;98;0;0;0
2014-06-26;115;0;0;0
2014-06-25;124;0;0;0
2014-06-24;117;0;0;0
2014-06-23;128;0;0;0
2014-06-22;112;0;0;0
2014-06-21;105;0;0;0
2014-06-20;113;0;0;0
2014-06-19;118;0;0;0
2014-06-18;53;0;0;0
2014-06-17;75;0;0;0
2014-06-16;96;0;0;0
2014-06-15;37;0;0;0
2014-06-14;69;0;0;0
2014-06-13;60;0;0;0
2014-06-12;85;0;0;0
2014-06-11;62;0;0;0
2014-06-10;95;0;0;0
2014-06-09;53;0;0;0
2014-06-08;80;0;0;0
2014-06-07;71;0;0;0
2014-06-06;79;0;0;0
2014-06-05;65;0;0;0
2014-06-04;131;0;0;0
2014-06-03;117;0;0;0
2014-06-02;50;1;0;0
2014-06-01;83;1;0;0
2014-05-31;100;0;0;0
2014-05-30;114;0;0;0
2014-05-29;97;0;0;0
2014-05-28;113;0;0;0
2014-05-27;131;0;0;0
2014-05-26;119;0;0;0
2014-05-25;61;0;0;0
2014-05-24;102;0;0;0
2014-05-23;96;0;0;0
2014-05-22;103;0;0;0
2014-05-21;102;0;0;0
2014-05-20;125;0;0;0
2014-05-19;131;0;0;0
2014-05-18;114;0;0;0
2014-05-17;117;0;0;0
2014-05-16;110;0;0;0
2014-05-15;135;0;0;0
2014-05-14;136;0;0;0
2014-05-13;141;1;0;0
2014-05-12;73;0;0;0
2014-05-11;93;0;0;0
2014-05-10;102;0;0;0
2014-05-09;93;0;0;0
2014-05-08;93;0;0;0
2014-05-07;141;0;0;0
2014-05-06;132;0;0;0
2014-05-05;133;0;0;0
2014-05-04;143;0;0;0
2014-05-03;127;1;0;0
2014-05-02;128;0;0;0
2014-05-01;108;0;0;0
2014-04-30;115;0;0;0
2014-04-29;166;0;0;0
2014-04-28;144;0;0;0
2014-04-27;137;0;0;0
2014-04-26;138;1;0;0
2014-04-25;147;0;0;0
2014-04-24;104;1;0;0
2014-04-23;144;0;0;0
2014-04-22;111;1;0;0
2014-04-21;173;0;0;0
2014-04-20;162;0;0;0
2014-04-19;145;0;0;0
2014-04-18;165;0;0;0
2014-04-17;160;0;0;0
2014-04-16;165;1;0;0
2014-04-15;147;0;0;0
2014-04-14;71;0;0;0
2014-04-13;161;0;0;0
2014-04-12;142;0;0;0
2014-04-11;172;0;0;0
2014-04-10;168;0;0;0
2014-04-09;153;1;0;0
2014-04-08;177;0;0;0
2014-04-07;119;1;0;0
2014-04-06;137;0;0;0
2014-04-05;124;0;0;0
2014-04-04;142;1;0;0
2014-04-03;136;0;0;0
2014-04-02;156;0;0;0
2014-04-01;149;0;0;0
2014-03-31;110;0;0;0
2014-03-30;168;0;0;0
2014-03-29;156;0;0;0
2014-03-28;146;0;0;0
2014-03-27;192;0;0;0
2014-03-26;172;0;0;0
2014-03-25;147;0;0;0
2014-03-24;116;0;0;0
2014-03-23;124;0;0;0
2014-03-22;140;0;0;0
2014-03-21;170;0;0;0
2014-03-20;142;1;0;0
2014-03-19;169;0;0;0
2014-03-18;119;1;0;0
2014-03-17;88;0;0;0
2014-03-16;109;1;0;0
2014-03-15;158;1;0;0
2014-03-14;164;0;0;0
2014-03-13;153;0;0;0
2014-03-12;186;0;0;0
2014-03-11;116;1;0;0
2014-03-10;201;0;0;0
2014-03-09;159;0;0;0
2014-03-08;161;0;0;0
2014-03-07;115;1;0;0
2014-03-06;159;0;0;0
2014-03-05;173;3;0;0
2014-03-04;176;2;0;0
2014-03-03;160;1;0;0
2014-03-02;167;0;0;0
2014-03-01;157;0;0;0
2014-02-28;168;0;0;0
2014-02-27;182;0;0;0
2014-02-26;158;2;0;0
2014-02-25;184;1;0;0
2014-02-24;122;0;0;0
2014-02-23;200;0;0;0
2014-02-22;190;0;0;0
2014-02-21;191;1;0;0
2014-02-20;175;1;0;0
2014-02-19;167;1;0;0
2014-02-18;161;2;0;0
2014-02-17;117;1;0;0
2014-02-16;196;0;0;0
2014-02-15;172;1;0;0
2014-02-14;188;0;0;0
2014-02-13;151;1;0;0
2014-02-12;209;1;0;0
2014-02-11;151;3;0;0
2014-02-10;179;0;0;0
2014-02-09;201;2;0;0
2014-02-08;186;0;0;0
2014-02-07;177;1;0;0
2014-02-06;203;1;0;0
2014-02-05;193;0;0;0
2014-02-04;216;0;0;1
2014-02-03;141;0;0;0
2014-02-02;237;0;0;0
2014-02-01;199;0;1;0
2014-01-31;222;1;0;0
2014-01-30;215;1;0;0
2014-01-29;197;3;0;0
2014-01-28;197;2;0;0
2014-01-27;177;0;0;0
2014-01-26;105;2;0;0
2014-01-25;131;2;0;0
2014-01-24;184;0;0;0
2014-01-23;179;0;0;0
2014-01-22;186;2;0;0
2014-01-21;200;1;0;0
2014-01-20;159;1;0;0
2014-01-19;179;2;0;0
2014-01-18;162;1;0;0
2014-01-17;141;2;0;0
2014-01-16;151;3;0;0
2014-01-15;178;1;0;0
2014-01-14;189;1;0;0
2014-01-13;151;0;0;0
2014-01-12;197;6;0;0
2014-01-11;173;1;0;0
2014-01-10;179;2;0;0
2014-01-09;162;1;0;0
2014-01-08;193;2;0;0
2014-01-07;173;3;0;0
2014-01-06;147;1;0;0
2014-01-05;192;1;0;0
2014-01-04;181;0;0;0
2014-01-03;180;0;0;0
2014-01-02;189;1;0;0
2014-01-01;180;1;0;0
2013-12-31;168;1;0;0
2013-12-30;147;0;0;0
2013-12-29;142;0;1;0
2013-12-28;137;0;0;0
2013-12-27;140;0;0;0
2013-12-26;139;0;0;0
2013-12-25;142;0;0;0
2013-12-24;153;1;0;0
2013-12-23;128;0;0;0
2013-12-22;149;1;0;0
2013-12-21;134;0;0;0
2013-12-20;121;0;0;0
2013-12-19;161;0;0;0
2013-12-18;126;0;0;0
2013-12-17;183;1;0;0
2013-12-16;105;0;0;0
2013-12-15;191;1;0;0
2013-12-14;172;0;0;0
2013-12-13;177;0;0;0
2013-12-12;167;0;0;0
2013-12-11;157;1;0;0
2013-12-10;166;0;0;0
2013-12-09;124;0;0;0
2013-12-08;138;0;0;0
2013-12-07;135;0;0;0
2013-12-06;124;2;0;0
2013-12-05;172;0;0;0
2013-12-04;143;0;0;0
2013-12-03;169;0;0;0
2013-12-02;185;0;0;0
2013-12-01;163;0;0;0
2013-11-30;170;0;0;0
2013-11-29;177;0;0;0
2013-11-28;102;0;0;0
2013-11-27;93;0;0;0
2013-11-26;202;1;0;0
2013-11-25;122;0;0;0
2013-11-24;184;3;0;0
2013-11-23;164;1;0;0
2013-11-22;141;0;0;0
2013-11-21;172;0;1;0
2013-11-20;181;1;0;0
2013-11-19;188;0;0;0
2013-11-18;145;0;0;0
2013-11-17;179;1;0;0
2013-11-16;161;0;0;0
2013-11-15;171;0;0;0
2013-11-14;171;0;1;0
2013-11-13;168;0;0;0
2013-11-12;180;0;0;0
2013-11-11;92;0;0;0
2013-11-10;201;1;0;0
2013-11-09;159;1;0;0
2013-11-08;170;1;0;0
2013-11-07;162;1;0;0
2013-11-06;147;0;0;0
2013-11-05;196;0;0;0
2013-11-04;138;0;0;0
2013-11-03;151;1;0;0
2013-11-02;129;0;0;0
2013-11-01;119;0;0;0
2013-10-31;43;0;0;0
2013-10-30;2;0;0;0
2013-10-29;1;1;0;0
2013-10-28;12;0;0;0
2013-10-27;146;0;0;0
2013-10-26;115;1;0;0
2013-10-25;86;0;0;0
2013-10-24;150;1;0;0
2013-10-23;156;1;0;0
2013-10-22;155;0;0;0
2013-10-21;171;0;0;0
2013-10-20;163;0;0;0
2013-10-19;158;0;0;0
2013-10-18;130;1;0;0
2013-10-17;125;0;0;0
2013-10-16;124;0;0;0
2013-10-15;144;0;0;0
2013-10-14;141;0;0;0
2013-10-13;136;1;0;0
2013-10-12;129;0;0;0
2013-10-11;110;0;0;0
2013-10-10;140;1;0;0
2013-10-09;145;2;0;0
2013-10-08;120;1;1;0
2013-10-07;134;0;0;0
2013-10-06;121;1;0;0
2013-10-05;115;0;0;0
2013-10-04;97;0;0;0
2013-10-03;84;1;0;0
2013-10-02;4;1;0;0
2013-10-01;3;2;0;0
2013-09-30;5;0;0;0
2013-09-29;75;0;0;0
2013-09-28;99;1;0;0
2013-09-27;128;0;0;0
2013-09-26;117;0;0;0
2013-09-25;113;1;0;0
2013-09-24;121;1;0;0
2013-09-23;117;0;0;0
2013-09-22;113;0;0;0
2013-09-21;102;1;0;0
2013-09-20;104;0;0;0
2013-09-19;123;0;0;0
2013-09-18;109;0;0;0
2013-09-17;109;1;0;0
2013-09-16;105;0;0;0
2013-09-15;111;0;0;0
2013-09-14;106;0;0;0
2013-09-13;107;0;0;0
2013-09-12;113;0;0;0
2013-09-11;104;0;0;0
2013-09-10;105;0;0;0
2013-09-09;97;0;0;0
2013-09-08;59;0;0;0
2013-09-07;104;0;0;0
2013-09-06;106;0;0;0
2013-09-05;100;0;0;0
2013-09-04;111;0;0;0
2013-09-03;111;0;0;0
2013-09-02;115;0;0;0
2013-09-01;102;0;0;0
2013-08-31;82;0;0;0
2013-08-30;96;0;0;0
2013-08-29;105;0;0;0
2013-08-28;110;0;0;0
2013-08-27;107;0;0;0
2013-08-26;117;0;0;0
2013-08-25;105;0;0;0
2013-08-24;85;0;0;0
2013-08-23;94;0;0;0
2013-08-22;92;0;0;0
2013-08-21;107;0;0;0
2013-08-20;115;0;0;0
2013-08-19;102;0;0;0
2013-08-18;91;0;0;0
2013-08-17;87;0;0;0
2013-08-16;105;0;0;0
2013-08-15;77;0;1;0
2013-08-14;90;0;0;0
2013-08-13;102;0;0;0
2013-08-12;98;0;0;0
2013-08-11;92;0;0;0
2013-08-10;92;0;0;0
2013-08-09;86;0;0;0
2013-08-08;97;0;0;0
2013-08-07;93;0;0;0
2013-08-06;108;0;1;0
2013-08-05;100;0;0;0
2013-08-04;103;0;0;0
2013-08-03;84;0;0;0
2013-08-02;95;0;0;0
2013-08-01;75;0;0;0
2013-07-31;101;0;0;0
2013-07-30;106;0;0;0
2013-07-29;69;0;0;0
2013-07-28;79;0;0;0
2013-07-27;78;0;0;0
2013-07-26;95;0;0;0
2013-07-25;100;0;0;0
2013-07-24;102;0;0;0
2013-07-23;105;0;0;0
2013-07-22;74;0;0;0
2013-07-21;95;0;0;0
2013-07-20;85;0;0;0
2013-07-19;80;0;0;0
2013-07-18;95;0;0;1
2013-07-17;90;0;0;0
2013-07-16;94;0;0;0
2013-07-15;92;0;0;0
2013-07-14;85;0;0;0
2013-07-13;82;0;0;0
2013-07-12;83;0;0;0
2013-07-11;84;0;0;0
2013-07-10;96;0;0;0
2013-07-09;98;0;0;0
2013-07-08;73;0;0;0
2013-07-07;94;0;0;0
2013-07-06;82;0;1;0
2013-07-05;74;0;0;0
2013-07-04;100;0;0;0
2013-07-03;93;0;0;0
2013-07-02;117;0;0;1
2013-07-01;105;0;0;0
2013-06-30;102;0;0;0
2013-06-29;73;0;0;0
2013-06-28;99;0;0;0
2013-06-27;98;0;0;0
2013-06-26;94;0;0;0
2013-06-25;89;0;0;0
2013-06-24;105;0;0;0
2013-06-23;89;0;0;0
2013-06-22;75;0;0;0
2013-06-21;84;0;0;0
2013-06-20;80;0;0;0
2013-06-19;105;0;0;0
2013-06-18;107;0;0;0
2013-06-17;102;0;0;0
2013-06-16;102;0;0;0
2013-06-15;103;0;0;0
2013-06-14;106;0;0;0
2013-06-13;110;0;0;0
2013-06-12;97;0;0;0
2013-06-11;117;0;0;0
2013-06-10;117;0;0;0
2013-06-09;115;0;0;0
2013-06-08;97;0;0;0
2013-06-07;107;0;0;0
2013-06-06;110;0;0;0
2013-06-05;101;0;1;0
2013-06-04;122;0;0;0
2013-06-03;113;0;0;0
2013-06-02;105;0;0;0
2013-06-01;100;0;0;0
2013-05-31;111;0;0;0
2013-05-30;100;0;0;0
2013-05-29;113;0;0;0
2013-05-28;69;0;0;0
2013-05-27;88;0;0;0
2013-05-26;1;0;0;0
2013-05-25;10;0;0;0
2013-05-24;59;0;0;0
2013-05-23;110;0;0;0
2013-05-22;120;0;0;0